This is the latest recevied weather packets stored in our database for station/object HB9KBJ-8. If no packets are shown the sender has not sent any weather packets the latest 10 day(s).
| Time | Temp. | Humidity | Pressure | Rain* | Wind** | Luminosity | Snow |
|---|---|---|---|---|---|---|---|
| 1777733845 | 26.67° C | 34% | 1017.7 hPa | 0 mm | - | 536 W/m² | - |
| 1777733548 | 27.22° C | 35% | 1017.8 hPa | 0 mm | - | 513 W/m² | - |
| 1777733243 | 25.56° C | 37% | 1017.9 hPa | 0 mm | - | 487 W/m² | - |
| 1777732955 | 25° C | 37% | 1018 hPa | 0 mm | - | 508 W/m² | - |
| 1777732645 | 25° C | 37% | 1018 hPa | 0 mm | - | 571 W/m² | - |
| 1777732337 | 26.11° C | 34% | 1018.1 hPa | 0 mm | - | 490 W/m² | - |
| 1777732046 | 26.11° C | 35% | 1018.2 hPa | 0 mm | - | 559 W/m² | - |
| 1777731740 | 25.56° C | 36% | 1018.3 hPa | 0 mm | - | 548 W/m² | - |
| 1777731433 | 25.56° C | 36% | 1018.3 hPa | 0 mm | - | 591 W/m² | - |
| 1777731148 | 26.67° C | 34% | 1018.4 hPa | 0 mm | - | 519 W/m² | - |
| 1777730865 | 25.56° C | 36% | 1018.5 hPa | 0 mm | - | 624 W/m² | - |
| 1777730537 | 25.56° C | 36% | 1018.6 hPa | 0 mm | - | 698 W/m² | - |
| 1777730232 | 26.11° C | 34% | 1018.7 hPa | 0 mm | - | 680 W/m² | - |
| 1777729950 | 26.11° C | 36% | 1018.7 hPa | 0 mm | - | 717 W/m² | - |
| 1777729646 | 25.56° C | 36% | 1018.9 hPa | 0 mm | - | 619 W/m² | - |
| 1777729336 | 26.11° C | 36% | 1019 hPa | 0 mm | - | 598 W/m² | - |
| 1777729049 | 24.44° C | 37% | 1019.1 hPa | 0 mm | - | 608 W/m² | - |
| 1777728746 | 26.11° C | 34% | 1019.1 hPa | 0 mm | - | 587 W/m² | - |
| 1777728443 | 25.56° C | 36% | 1019.2 hPa | 0 mm | - | 610 W/m² | - |
| 1777728152 | 24.44° C | 36% | 1019.3 hPa | 0 mm | - | 642 W/m² | - |
| 1777727846 | 25° C | 37% | 1019.4 hPa | 0 mm | - | 689 W/m² | - |
| 1777727543 | 25.56° C | 38% | 1019.4 hPa | 0 mm | - | 728 W/m² | - |
| 1777727244 | 24.44° C | 38% | 1019.5 hPa | 0 mm | - | 733 W/m² | - |
| 1777726941 | 26.11° C | 38% | 1019.5 hPa | 0 mm | - | 719 W/m² | - |
| 1777726635 | 25.56° C | 39% | 1019.6 hPa | 0 mm | - | 729 W/m² | - |
* Rain latest hour (hover to see other rain measurements)
** Current wind speed in m/s (hover to see current wind gust speed)